[[{"header":{"parameterUnit":"m.s-1","parameterCategory":1,"la1":30.2991,"la2":30.254,"lo1":-89.0895,"lo2":-89.0444,"dy":0.0017,"dx":0.0017,"nx":28,"ny":28,"refTime":"2025-03-02T09:00:00:Z","depth":0,"parameterNumber":2,"parameterNumberName":"U-component_of_WINDS"},"data":[0,0,0,0,0,0,0,0,0,0,0,0,0,0,0,0,0,0,0,0,0,0,0,0,0,0,0,0,0,0,0,0,0,0,0,0,0,0,0,0,0,0,0,0,0,0,0,0,0,0,0,0,0,0,0,0,0,0,-4.4056,-4.4056,0,-4.4061,-4.4061,-4.4061,-4.395,-4.3947,-4.3944,-4.3941,-4.3947,-4.395,-4.3953,0,0,0,0,0,0,0,0,0,0,0,0,0,-4.3952,-4.3954,-4.4056,-4.4056,-4.4056,-4.4061,-4.4061,-4.4061,-4.3951,-4.3947,-4.3943,-4.394,-4.3946,-4.3949,-4.3953,0,0,0,0,0,0,0,0,0,0,0,0,0,-4.3981,-4.3955,-4.4056,-4.4002,-4.3997,-4.4061,-4.4061,-4.4061,-4.3951,-4.3947,-4.3942,-4.3938,-4.3945,-4.3949,-4.3953,-4.407,0,0,-4.3967,-4.3969,0,0,0,0,0,0,0,0,-4.3979,-4.3985,-4.401,-4.4006,-4.4,-4.4,-4.4026,-4.4064,-4.3953,-4.3969,-4.3941,-4.3936,-4.3968,-4.3971,-4.3981,-4.4071,-4.4071,-4.3967,-4.397,-4.3972,-4.3973,0,0,0,0,0,0,0,-4.3978,-4.3984,-4.4058,-4.401,-4.4005,-4.3977,-4.3976,-4.4033,-4.3994,-4.3967,-4.3959,-4.3961,-4.3965,-4.3977,-4.3981,-4.4071,-4.3967,-4.3971,-4.3974,-4.3976,-4.4257,-4.4261,0,0,0,0,0,0,-4.3983,-4.3983,-4.4058,-4.4058,-4.3979,-4.3983,-4.3982,-4.4005,-4.3993,-4.3987,-4.3965,-4.3956,-4.3972,-4.3976,-4.398,-4.4117,-4.3972,-4.3976,-4.3979,-4.4252,-4.4258,-4.4263,0,0,0,0,0,0,-4.3981,-4.3991,-4.4058,-4.4019,-4.4025,-4.3989,-4.4016,-4.4007,-4.402,-4.3991,-4.3984,-4.3985,-4.3969,-4.3974,-4.4049,-4.4116,-4.3978,-4.3982,-4.4246,-4.4254,-4.4261,-4.4392,0,0,0,0,0,0,-4.3979,-4.3991,-4.4035,-4.402,-4.4028,-4.4127,-4.402,-4.4011,-4.4027,-4.4016,-4.4008,-4.4002,-4.3966,-4.4043,-4.4053,-4.4119,-4.3985,-4.424,-4.425,-4.4258,-4.4381,-4.4402,-4.4421,0,0,0,0,0,-4.3975,-4.4071,-4.4037,-4.4047,-4.4082,-4.4131,-4.4135,-4.4091,-4.4033,-4.4077,-4.4059,-4.4002,-4.4107,-4.4052,-4.4062,-4.4131,-4.4236,-4.4247,-4.4258,-4.4372,-4.4398,-4.442,0,0,0,0,0,0,-4.4095,-4.4068,-4.4031,-4.4125,-4.4131,-4.4112,-4.4166,-4.4119,-4.4142,-4.413,-4.4074,-4.4073,-4.4157,-4.4151,-4.409,-4.4243,-4.4161,-4.4175,-4.4245,-4.4269,-4.4289,-4.4289,-4.3989,0,0,0,0,0,-4.4132,-4.4173,-4.4148,-4.4234,-4.4239,-4.4202,-4.4222,-4.4187,-4.4191,-4.4193,-4.418,-4.4186,-4.422,-4.4244,-4.4274,-4.4379,-4.4376,-4.4432,-4.4451,-4.4468,-4.4481,-4.4537,-4.4561,-4.4299,-4.4299,-4.4299,0,0,-4.4209,-4.42,-4.423,-4.4258,-4.4258,-4.4303,-4.4205,-4.4256,-4.4289,-4.4201,-4.4271,-4.4262,-4.4265,-4.4356,-4.4395,-4.4353,-4.4552,-4.4482,-4.4495,-4.4499,-4.455,-4.4575,-4.4598,-4.4306,-4.4305,-4.4304,0,0,-4.4374,-4.4371,-4.4442,-4.4445,-4.4447,-4.4421,-4.4439,-4.4427,-4.4418,-4.4487,-4.4422,-4.446,-4.4519,-4.4525,-4.4535,-4.4702,-4.4651,-4.4713,-4.4817,-4.4872,-4.4893,-4.4911,-4.4972,-4.4994,-4.4725,-4.4726,-4.4726,0,-4.447,-4.4535,-4.4485,-4.4541,-4.4555,-4.4477,-4.4549,-4.4554,-4.4566,-4.4578,-4.4531,-4.4604,-4.4601,-4.4692,-4.4733,-4.4744,-4.4762,-4.4714,-4.4894,-4.4911,-4.4928,-4.4985,-4.5008,-4.4733,-4.4732,-4.4732,-4.4731,0,-4.4654,-4.47,-4.4757,-4.4771,-4.4791,-4.4855,-4.4815,-4.4842,-4.4806,-4.4786,-4.4858,-4.4851,-4.4878,-4.4897,-4.4862,-4.4984,-4.4958,-4.4903,-4.482,-4.4961,-4.5014,-4.5035,-4.4744,-4.4742,-4.4739,-4.4737,0,0,-4.4894,-4.4879,-4.4901,-4.4907,-4.4903,-4.4938,-4.4998,-4.5025,-4.505,-4.506,-4.511,-4.5163,-4.5112,-4.5124,-4.5088,-4.5137,-4.5271,-4.5076,-4.5075,-4.5114,-4.5406,-4.5449,-4.5475,-4.5237,-4.5241,-4.5244,-4.5407,0,-4.5055,-4.5158,-4.5115,-4.5222,-4.5264,-4.519,-4.5243,-4.5246,-4.523,-4.5263,-4.5244,-4.5282,-4.5212,-4.5219,-4.5263,-4.5246,-4.5329,-4.5233,-4.5284,-4.5286,-4.5287,-4.5503,-4.5548,-4.5702,-4.5427,-4.543,-4.5433,0,-4.5257,-4.5276,-4.5388,-4.5377,-4.5393,-4.5441,-4.5462,-4.5495,-4.5498,-4.5482,-4.5496,-4.5449,-4.5508,-4.5424,-4.5505,-4.5441,-4.5458,-4.5453,-4.5458,-4.5462,-4.5369,-4.5514,-4.575,-4.5774,-4.5465,-4.5462,-4.546,0,-4.5423,-4.5477,-4.555,-4.5557,-4.5546,-4.5582,-4.5579,-4.5577,-4.5596,-4.5615,-4.5626,-4.5652,-4.5666,-4.5686,-4.5648,-4.559,-4.5735,-4.5647,-4.5725,-4.5726,-4.576,-4.5758,-4.6003,-4.5769,-4.5769,-4.5768,-4.5768,0,-4.5608,-4.568,-4.5625,-4.5671,-4.5749,-4.5698,-4.5776,-4.5765,-4.5764,-4.5807,-4.5744,-4.5785,-4.5731,-4.5768,-4.5738,-4.581,-4.5817,-4.5806,-4.5798,-4.5813,-4.5814,-4.5825,-4.5814,-4.5774,-4.5773,-4.5772,-4.5771,0,-4.5808,-4.5774,-4.585,-4.5833,-4.583,-4.5889,-4.5874,-4.5916,-4.5894,-4.5949,-4.5959,-4.5925,-4.5964,-4.5928,-4.5965,-4.5945,-4.6042,-4.6017,-4.6042,-4.6035,-4.6115,-4.6109,-4.6376,-4.6409,-4.6153,-4.6155,-4.6157,0,-4.5929,-4.5982,-4.5971,-4.5995,-4.5996,-4.6035,-4.6054,-4.6006,-4.6029,-4.6036,-4.6077,-4.6111,-4.6136,-4.6202,-4.6181,-4.6209,-4.6186,-4.6277,-4.619,-4.6203,-4.6189,-4.6187,-4.6192,-4.6296,-4.6299,-4.6301,-4.6303,0,-4.6148,-4.6128,-4.6158,-4.6183,-4.6207,-4.6224,-4.6236,-4.6259,-4.621,-4.6238,-4.6278,-4.6297,-4.6335,-4.637,-4.6392,-4.6388,-4.6339,-4.6331,-4.6351,-4.6367,-4.638,-4.6375,-4.6092,-4.6326,-4.6323,-4.6322,-4.632,-4.632,-4.6313,-4.6357,-4.6356,-4.6392,-4.6396,-4.6409,-4.6447,-4.643,-4.6462,-4.649,-4.6459,-4.6508,-4.6509,-4.6533,-4.6536,-4.6573,-4.6535,-4.6563,-4.657,-4.6578,-4.6591,-4.6373,-4.6577,-4.6576,-4.6575,-4.6575,-4.6574,0,-4.653,-4.6526,-4.6559,-4.6578,-4.6606,-4.6555,-4.6566,-4.6593,-4.6637,-4.6642,-4.6667,-4.6713,-4.6746,-4.6728,-4.6757,-4.679,-4.6768,-4.68,-4.6798,-4.6798,-4.6623,-4.6604,-4.6817,-4.6817,-4.6817,-4.6817,-4.6817,-4.6817,-4.6646,-4.6719,-4.6699,-4.6773,-4.6768,-4.6815,-4.6826,-4.6838,-4.6842,-4.6895,-4.6923,-4.691,-4.6906,-4.6934,-4.6963,-4.6957,-4.6971,-4.7011,-4.6997,-4.6834,-4.681,-4.6787,-4.6769,-4.7014,-4.7015,-4.7169,-4.7171,-4.7172]},{"header":{"parameterUnit":"m.s-1","parameterCategory":1,"la1":30.2991,"la2":30.254,"lo1":-89.0895,"lo2":-89.0444,"dy":0.0017,"dx":0.0017,"nx":28,"ny":28,"refTime":"2025-03-02T09:00:00:Z","depth":0,"parameterNumber":3,"parameterNumberName":"V-component_of_WINDS"},"data":[0,0,0,0,0,0,0,0,0,0,0,0,0,0,0,0,0,0,0,0,0,0,0,0,0,0,0,0,0,0,0,0,0,0,0,0,0,0,0,0,0,0,0,0,0,0,0,0,0,0,0,0,0,0,0,0,0,0,-4.489,-4.489,0,-4.494,-4.4941,-4.4941,-4.4907,-4.4906,-4.4904,-4.4903,-4.4952,-4.4954,-4.4957,0,0,0,0,0,0,0,0,0,0,0,0,0,-4.476,-4.4763,-4.489,-4.489,-4.4891,-4.494,-4.4941,-4.4942,-4.4908,-4.4906,-4.4904,-4.4902,-4.4951,-4.4954,-4.4957,0,0,0,0,0,0,0,0,0,0,0,0,0,-4.4814,-4.4764,-4.489,-4.488,-4.488,-4.494,-4.4941,-4.4942,-4.4908,-4.4906,-4.4903,-4.4901,-4.495,-4.4954,-4.4958,-4.5029,0,0,-4.497,-4.4972,0,0,0,0,0,0,0,0,-4.4811,-4.4819,-4.4881,-4.4881,-4.4881,-4.4915,-4.4913,-4.4971,-4.4908,-4.4897,-4.4903,-4.49,-4.4941,-4.4946,-4.496,-4.5032,-4.5034,-4.4971,-4.4973,-4.4975,-4.4976,0,0,0,0,0,0,0,-4.4808,-4.4817,-4.491,-4.4882,-4.4882,-4.4872,-4.4877,-4.4924,-4.4931,-4.4898,-4.4896,-4.4902,-4.4941,-4.4956,-4.4961,-4.5034,-4.497,-4.4974,-4.4977,-4.4978,-4.5167,-4.5169,0,0,0,0,0,0,-4.4805,-4.4814,-4.4908,-4.4911,-4.484,-4.4876,-4.4882,-4.4906,-4.4931,-4.4932,-4.4904,-4.49,-4.495,-4.4956,-4.4963,-4.5048,-4.4975,-4.4979,-4.4981,-4.5164,-4.5167,-4.517,0,0,0,0,0,0,-4.4802,-4.4814,-4.4906,-4.4862,-4.4873,-4.4881,-4.4909,-4.4909,-4.4924,-4.4936,-4.4936,-4.4919,-4.4949,-4.4957,-4.5013,-4.505,-4.498,-4.4984,-4.5161,-4.5165,-4.5169,-4.522,0,0,0,0,0,0,-4.4799,-4.4813,-4.4841,-4.4863,-4.4875,-4.4957,-4.4911,-4.4911,-4.4932,-4.4928,-4.495,-4.4951,-4.4948,-4.5007,-4.5017,-4.5054,-4.4987,-4.5158,-4.5163,-4.5167,-4.5216,-4.5226,-4.5234,0,0,0,0,0,-4.4794,-4.4853,-4.4843,-4.4855,-4.4911,-4.4959,-4.4966,-4.4962,-4.4935,-4.4963,-4.497,-4.4951,-4.5044,-4.5013,-4.5024,-4.5063,-4.5156,-4.5162,-4.5167,-4.5211,-4.5224,-4.5234,0,0,0,0,0,0,-4.4835,-4.4856,-4.4845,-4.4913,-4.4935,-4.4953,-4.4988,-4.4975,-4.5004,-4.4998,-4.499,-4.4996,-4.5055,-4.5064,-4.503,-4.5133,-4.5095,-4.5104,-4.5125,-4.5137,-4.5146,-4.5143,-4.4991,0,0,0,0,0,-4.4852,-4.489,-4.4906,-4.4964,-4.4976,-4.4981,-4.5001,-4.4996,-4.5018,-4.5026,-4.5037,-4.5059,-4.5092,-4.5115,-4.5147,-4.5216,-4.522,-4.5248,-4.5257,-4.5265,-4.5272,-4.531,-4.5322,-4.5189,-4.5189,-4.5189,0,0,-4.4887,-4.4904,-4.4928,-4.4973,-4.4989,-4.5028,-4.4988,-4.5031,-4.506,-4.5032,-4.5087,-4.5095,-4.5118,-4.5182,-4.521,-4.5191,-4.531,-4.5272,-4.5278,-4.5282,-4.5317,-4.5329,-4.5341,-4.5193,-4.5192,-4.5191,0,0,-4.4972,-4.4988,-4.5039,-4.5056,-4.5081,-4.5084,-4.5096,-4.5116,-4.5122,-4.5176,-4.5156,-4.5189,-4.5248,-4.5265,-4.5282,-4.5372,-4.5355,-4.5382,-4.5431,-4.5467,-4.5478,-4.5487,-4.5519,-4.5531,-4.5389,-4.5389,-4.5389,0,-4.5012,-4.5071,-4.5066,-4.5111,-4.5131,-4.5108,-4.5159,-4.5175,-4.5209,-4.5223,-4.5202,-4.5275,-4.5289,-4.5356,-4.5378,-4.5392,-4.5405,-4.538,-4.5477,-4.5486,-4.5495,-4.5525,-4.5538,-4.5393,-4.5392,-4.5392,-4.5392,0,-4.512,-4.5161,-4.5198,-4.5233,-4.5257,-4.5304,-4.5305,-4.533,-4.5322,-4.5326,-4.5381,-4.5397,-4.5432,-4.5447,-4.5439,-4.5513,-4.55,-4.5478,-4.544,-4.5511,-4.5539,-4.5551,-4.5397,-4.5396,-4.5395,-4.5394,0,0,-4.5232,-4.5263,-4.5277,-4.5292,-4.5318,-4.5349,-4.5395,-4.543,-4.5451,-4.5475,-4.5513,-4.5563,-4.5542,-4.5561,-4.5555,-4.5587,-4.5657,-4.556,-4.5561,-4.5578,-4.5739,-4.5756,-4.577,-4.5646,-4.5648,-4.565,-4.5737,0,-4.5318,-4.54,-4.5396,-4.5471,-4.5509,-4.5488,-4.5527,-4.5547,-4.5552,-4.5583,-4.5588,-4.5624,-4.5594,-4.5605,-4.5636,-4.5642,-4.5689,-4.5636,-4.568,-4.5682,-4.5676,-4.5785,-4.5803,-4.5884,-4.5748,-4.575,-4.5751,0,-4.543,-4.5459,-4.5539,-4.5559,-4.5575,-4.5611,-4.5642,-4.5672,-4.5694,-4.5695,-4.5716,-4.5704,-4.5749,-4.571,-4.5771,-4.5735,-4.5752,-4.5758,-4.5761,-4.5766,-4.5722,-4.5792,-4.591,-4.5923,-4.5769,-4.5768,-4.5766,0,-4.5505,-4.5563,-4.5618,-4.5632,-4.5657,-4.5683,-4.5694,-4.5713,-4.5734,-4.5761,-4.5774,-4.5806,-4.5823,-4.5847,-4.5844,-4.5815,-4.5906,-4.5866,-4.5908,-4.5909,-4.5929,-4.5928,-4.6052,-4.594,-4.594,-4.5939,-4.5939,0,-4.5602,-4.5651,-4.5652,-4.5686,-4.5741,-4.5735,-4.5789,-4.5797,-4.5814,-4.5849,-4.5831,-4.5864,-4.5858,-4.589,-4.5887,-4.5939,-4.5946,-4.5948,-4.5947,-4.595,-4.595,-4.5962,-4.5957,-4.5943,-4.5942,-4.5941,-4.5941,0,-4.5695,-4.5697,-4.5756,-4.5775,-4.5781,-4.582,-4.5836,-4.5867,-4.587,-4.5914,-4.5924,-4.5929,-4.5966,-4.5965,-4.6007,-4.6005,-4.6068,-4.606,-4.6062,-4.606,-4.6102,-4.6099,-4.6239,-4.6257,-4.6132,-4.6134,-4.6135,0,-4.5757,-4.5795,-4.5818,-4.584,-4.5854,-4.589,-4.5911,-4.5906,-4.5929,-4.5956,-4.5984,-4.602,-4.6048,-4.6108,-4.6114,-4.6146,-4.6139,-4.6186,-4.6143,-4.6145,-4.614,-4.6138,-4.6142,-4.6194,-4.6196,-4.6197,-4.6198,0,-4.5867,-4.5867,-4.5899,-4.5932,-4.5958,-4.5984,-4.6007,-4.6026,-4.6023,-4.6049,-4.6088,-4.6109,-4.6152,-4.6187,-4.6218,-4.6228,-4.6213,-4.6211,-4.6222,-4.6226,-4.6226,-4.6227,-4.6085,-4.6208,-4.6207,-4.6206,-4.6205,-4.6205,-4.5947,-4.598,-4.6001,-4.6037,-4.6055,-4.6077,-4.6107,-4.6115,-4.6147,-4.6182,-4.6176,-4.6219,-4.6238,-4.6277,-4.629,-4.6323,-4.6306,-4.6323,-4.6327,-4.6331,-4.6336,-4.622,-4.6328,-4.6328,-4.6327,-4.6327,-4.6327,0,-4.6057,-4.6069,-4.6103,-4.6137,-4.6165,-4.6148,-4.6173,-4.6198,-4.6236,-4.6255,-4.6284,-4.6327,-4.6361,-4.637,-4.6402,-4.6427,-4.642,-4.6435,-4.6434,-4.6436,-4.6349,-4.6336,-4.644,-4.644,-4.644,-4.644,-4.644,-4.644,-4.6117,-4.6172,-4.6173,-4.6236,-4.6247,-4.629,-4.6305,-4.6325,-4.6341,-4.6391,-4.6419,-4.6425,-4.644,-4.6474,-4.6504,-4.6506,-4.6518,-4.6537,-4.6536,-4.6454,-4.6443,-4.6432,-4.642,-4.6539,-4.6539,-4.662,-4.6621,-4.6622]}]]